Weather History for KANJ - February, 2012

Change the Weather History Date:

Sunday, February 26, 2012

  Actual Average Record
Temperature  
Mean Temperature 21 °F 20 °F  
Max Temperature 26 °F 29 °F 46 °F (2000)
Min Temperature 15 °F 12 °F -22 °F (1934)
Degree Days  
Heating Degree Days 44 45  
Month to date heating degree days 996 1237  
Since 1 July heating degree days 5035 6037  
Moisture  
Dew Point 13 °F    
Average Humidity 67    
Maximum Humidity 84    
Minimum Humidity 49    
Precipitation  
Precipitation 0.03 in 0.05 in 0.64 in (1951)
Month to date precipitation 0.85 1.24  
Year to date precipitation 3.78 3.43  
Snow  
Snow 0.60 in 0.50 in 6.00 in (1975)
Month to date snowfall 14.1 17.5  
Since 1 July snowfall 68.4 99.1  
Snow Depth 14.00 in    
Sea Level Pressure  
Sea Level Pressure 30.19 in    
Wind  
Wind Speed 9 mph (East)    
Max Wind Speed 18 mph    
Max Gust Speed 27 mph    
Visibility 6 miles    
Events Fog , Snow    
T = Trace of Precipitation, MM = Missing Value Source: NWS Daily Summary

Daily Weather History Graph

Daily Weather History Graph

Search for Another Location

Airport or City:

Trip Planner

Search our weather history database for the weather conditions in past years. The results will help you decide how hot, cold, wet, or windy it might be!

Date:

Astronomy

Feb. 26, 2012 Rise Set
Actual Time 7:23 AM EST 6:18 PM EST
Civil Twilight 6:52 AM EST 6:48 PM EST
Nautical Twilight 6:17 AM EST 7:23 PM EST
Astronomical Twilight 5:42 AM EST 7:58 PM EST
Moon 8:57 AM EST (2/26) 11:37 PM EST (2/26)
Length of Visible Light 11h 56m
Length of Day
10h 55m
Waxing Crescent, 20% of the Moon is Illuminated
Feb 26
Waxing Crescent
Feb 29
First Quarter
Mar 8
Full
Mar 14
Last Quarter
Mar 22
New

Hourly Weather History & Observations

Time (EST) Temp. Windchill Dew Point Humidity Pressure Visibility Wind Dir Wind Speed Gust Speed Precip Events Conditions
12:55 AM 18.0 °F 12.7 °F 9.0 °F 68% 30.27 in 10.0 mi East 3.5 mph - N/A   Overcast
1:55 AM 18.0 °F 12.7 °F 9.0 °F 68% 30.30 in 10.0 mi ENE 3.5 mph - N/A   Overcast
2:55 AM 16.0 °F 8.8 °F 9.0 °F 74% 30.32 in 9.0 mi ENE 4.6 mph - 0.00 in   Overcast
3:55 AM 17.1 °F 8.7 °F 9.0 °F 71% 30.32 in 10.0 mi East 5.8 mph - N/A   Overcast
4:55 AM 16.0 °F 10.4 °F 8.1 °F 71% 30.32 in 10.0 mi East 3.5 mph - N/A   Overcast
5:55 AM 16.0 °F 8.8 °F 8.1 °F 71% 30.35 in 10.0 mi ENE 4.6 mph - N/A   Overcast
6:55 AM 15.1 °F 6.4 °F 7.0 °F 70% 30.35 in 10.0 mi East 5.8 mph - N/A   Overcast
7:55 AM 15.1 °F 5.2 °F 3.9 °F 61% 30.36 in 10.0 mi East 6.9 mph - N/A   Overcast
8:55 AM 16.0 °F 4.4 °F 1.9 °F 54% 30.35 in 10.0 mi East 9.2 mph - N/A   Partly Cloudy
9:55 AM 17.1 °F 5.8 °F 1.9 °F 52% 30.36 in 10.0 mi East 9.2 mph - N/A   Partly Cloudy
10:55 AM 19.0 °F 7.5 °F 5.0 °F 54% 30.35 in 10.0 mi ESE 10.4 mph - N/A   Scattered Clouds
11:38 AM 19.4 °F 7.9 °F 6.8 °F 58% 30.31 in 10.0 mi ESE 10.4 mph 18.4 mph N/A   Overcast
11:55 AM 19.0 °F 7.5 °F 6.1 °F 57% 30.34 in 10.0 mi ESE 10.4 mph - N/A   Overcast
12:55 PM 19.9 °F 9.3 °F 8.1 °F 60% 30.30 in 10.0 mi East 9.2 mph - N/A   Overcast
1:00 PM - - - N/A% - - North - - N/A   Unknown
1:26 PM 21.2 °F 7.8 °F 10.4 °F 63% 30.24 in 1.8 mi SE 15.0 mph 18.4 mph 0.00 in Snow Light Snow
1:39 PM 21.2 °F 10.1 °F 12.2 °F 68% 30.23 in 2.0 mi ESE 10.4 mph 18.4 mph 0.00 in Snow Light Snow
1:52 PM 21.2 °F 10.1 °F 12.2 °F 68% 30.22 in 3.0 mi ESE 10.4 mph 20.7 mph 0.00 in Snow Light Snow
1:55 PM 21.0 °F 9.9 °F 12.0 °F 68% 30.25 in 3.0 mi ESE 10.4 mph 20.7 mph 0.00 in Snow Light Snow
2:12 PM 21.2 °F 8.9 °F 12.2 °F 68% 30.20 in 2.5 mi ESE 12.7 mph 19.6 mph 0.00 in Snow Light Snow
2:22 PM 21.2 °F 9.5 °F 14.0 °F 74% 30.19 in 1.0 mi ESE 11.5 mph 21.9 mph 0.00 in Snow Light Snow
2:33 PM 19.4 °F 6.0 °F 15.8 °F 86% 30.18 in 0.8 mi ESE 13.8 mph 21.9 mph 0.00 in Snow Light Snow
2:55 PM 19.9 °F 7.3 °F 15.1 °F 81% 30.21 in 0.8 mi ESE 12.7 mph 20.7 mph 0.01 in Snow Light Snow
3:12 PM 19.4 °F 9.5 °F 15.8 °F 86% 30.15 in 0.5 mi ESE 8.1 mph 23.0 mph 0.01 in Fog , Snow Light Snow
3:26 PM 21.2 °F 7.8 °F 15.8 °F 80% 30.14 in 1.0 mi ESE 15.0 mph 19.6 mph 0.01 in Snow Light Snow
3:44 PM 21.2 °F 8.9 °F 15.8 °F 80% 30.12 in 1.8 mi East 12.7 mph 20.7 mph 0.01 in Snow Light Snow
3:55 PM 21.0 °F 8.6 °F 16.0 °F 81% 30.16 in 1.5 mi East 12.7 mph 20.7 mph 0.02 in Snow Light Snow
4:09 PM 21.2 °F 8.3 °F 15.8 °F 80% 30.13 in 2.0 mi East 13.8 mph 21.9 mph 0.00 in Snow Light Snow
4:21 PM 21.2 °F 10.1 °F 15.8 °F 80% 30.13 in 4.0 mi ESE 10.4 mph 23.0 mph 0.00 in Snow Light Snow
4:39 PM 21.2 °F 10.1 °F 15.8 °F 80% 30.12 in 1.8 mi East 10.4 mph 21.9 mph 0.00 in Snow Light Snow
4:55 PM 21.0 °F 8.6 °F 16.0 °F 81% 30.14 in 2.0 mi East 12.7 mph 21.9 mph 0.00 in Snow Light Snow
5:05 PM 21.2 °F 7.3 °F 15.8 °F 80% 30.09 in 5.0 mi East 16.1 mph 23.0 mph 0.00 in Snow Light Snow
5:55 PM 21.0 °F 9.9 °F 16.0 °F 81% 30.16 in 7.0 mi East 10.4 mph 19.6 mph 0.00 in Snow Light Snow
6:53 PM 21.2 °F 7.3 °F 17.6 °F 86% 30.06 in 2.5 mi ESE 16.1 mph 26.5 mph 0.00 in Snow Light Snow
6:55 PM 21.9 °F 10.4 °F 17.1 °F 82% 30.10 in 2.0 mi ESE 11.5 mph 26.5 mph 0.00 in Snow Light Snow
7:32 PM 21.2 °F 8.3 °F 17.6 °F 86% 30.08 in 4.0 mi East 13.8 mph 24.2 mph 0.00 in Snow Light Snow
7:55 PM 21.9 °F 9.8 °F 17.1 °F 82% 30.11 in 9.0 mi East 12.7 mph 21.9 mph 0.00 in   Overcast
8:55 PM 23.0 °F 11.1 °F 18.0 °F 81% 30.07 in 5.0 mi East 12.7 mph 23.0 mph 0.00 in Snow Light Snow
9:26 PM 24.8 °F 12.9 °F 19.4 °F 80% 30.02 in 7.0 mi East 13.8 mph 23.0 mph 0.00 in Snow Light Snow
9:55 PM 24.1 °F 12.0 °F 19.9 °F 84% 30.04 in 8.0 mi East 13.8 mph 24.2 mph 0.00 in Snow Light Snow
10:10 PM 24.8 °F 16.1 °F 19.4 °F 80% 30.00 in 6.0 mi East 8.1 mph - 0.00 in Snow Light Snow
10:55 PM 25.0 °F 14.2 °F 21.0 °F 85% 30.01 in 9.0 mi East 11.5 mph 19.6 mph 0.00 in   Overcast
11:18 PM 24.8 °F 14.6 °F 21.2 °F 86% 29.96 in 10.0 mi East 10.4 mph 20.7 mph N/A   Overcast
11:55 PM 26.1 °F 16.2 °F 21.9 °F 84% 29.95 in 10.0 mi East 10.4 mph - N/A   Overcast